STARLINK-11673, 64318

Orbit data source: Space-Track

STARLINK-11673, 64318 is a payload satellite owned by SpaceX/Seattle (US) in LEO that was launched on Tue, 10 Jun 2025 UTC via an FALCON 9 launch vehicle from the Air Force Eastern Test Range (AFETR). Payload-class satellites include a variety of spacecraft equipped with specific instruments for various scientific and technological missions. These include communications satellites like Starlink; space stations such as the ISS; scientific satellites like the Hubble; Earth observation satellites from companies like Planet Labs, Umbra, and HawkEye 360; GPS; miniature CubeSats for education and research; and military/defense satellites.

Loading next visibility...
Identifier
64318, 2025-124B
Orbit
LEO
Country
Flag of USUS
Related business
Manufacturer
SpaceX/Seattle
Mission
Operational Commercial Communications
Bus & Motor
STARLINK V2M, Unknown motor
Mass
730 kg wet, ~700 kg dry
Launch date (UTC)
2025-06-10 (3 months ago)
Launch vehicle
FALCON 9
Launch site
Air Force Eastern Test Range (AFETR)
Object type
Payload
Rocket body
Debris
Shape & HBR
Box + 2 Pan, 14.5 m
Radar Cross Section
36.964 m², Large (>1 m²)

Expand to show TLE details & history
Last TLE update: 5 hours ago

TLE from 5 hours ago
0 STARLINK-11673
1 64318U 25124B   25242.93513534  .00281615  00000-0  21151-2 0  9999
2 64318  42.9986  99.0269 0002392 271.0817  88.9777 15.70947052 12839
Epoch: 2025-08-30T22:26Z
TLE epoch observation values (Epoch: 2025-08-30T22:26:35.693Z)
Latitude
0.00001°
Longitude
143.0159°
Altitude
355.932 km
Speed
7.697 km/s
True Right ascension
06h 36m 06s
True Declination
0° 00' 00"
Sunlit
Object was in daylight at epoch
Visualization orbit readout
Latitude
Unknown
Longitude
Unknown
Altitude
Unknown
Speed
Unknown
Apparent Right ascension
Unknown
Apparent Declination
Unknown
Sunlit
N/A
Visualization observer readout
Local Sidereal Time
19:09:20
Azimuth
Unknown
Elevation
Unknown
Doppler factor
Unknown
Orbital elements
Apogee altitude
359.782 km
Perigee altitude
356.56 km
Semi-major axis
6,736.308 km
Eccentricity
0.00024
Inclination
42.9986°
RAAN
99.0269°
Arg. of periapsis
271.0817°
True anomaly
89.00511°
Mean anomaly
88.9777°
Eccentric anomaly
88.9914°
Mean motion
3.92564 °/min
Orbital period
91.7 mins
BSTAR
0.0021151
Loading maneuver chart data...
Computing Atmospheric mass density...
Loading historical data...
Loading historical data...
Loading historical data...
Loading historical data...
Loading historical data...
Loading historical data...
Loading historical data...

Documentation

Showing up to 5 results
|